Location: *
(46.4000°N, 12.6667°E)
Time: 23:29:26
(UTC+00:00)

Envisat - Pass Details

Date: 05 March 2021
Orbit: 764 x 766 km, 98.1° (Epoch: 12 April)

Event Time Altitude Azimuth Distance (km) Brightness Sun altitude
Rises 03:44:23 0° 26° (NNE) 3,243 6.8 -20.8°
Reaches altitude 10° 03:47:17 10° 43° (NE) 2,311 6.3 -20.4°
Maximum altitude 03:51:03 21° 91° (E) 1,691 5.7 -19.7°
Drops below altitude 10° 03:54:47 10° 139° (SE) 2,297 5.8 -19.1°
Sets 03:57:39 0° 156° (SSE) 3,217 6.4 -18.6°
